| time (UTC) | temp C | wind direction | speed KPH | gust KPH | rain 1hr cm | rain 24hr cm | rain mn cm | humidity % | barometer mb |
| 20260507161007 | 15 | 226 | 1.6 | 3.2 | 0.00 | 1.30 | 0.97 | 81 | 1007.8 |
| 20260507160507 | 15 | 155 | 0.0 | 3.2 | 0.00 | 1.30 | 0.97 | 81 | 1007.8 |
| 20260507160024 | 15 | 229 | 0.0 | 4.8 | 0.00 | 1.30 | 0.97 | 81 | 1008.0 |
| 20260507155509 | 14 | 147 | 0.0 | 4.8 | 0.00 | 1.30 | 0.97 | 80 | 1008.1 |
| 20260507155011 | 14 | 252 | 0.0 | 3.2 | 0.00 | 1.30 | 0.97 | 77 | 1008.1 |
| 20260507154522 | 14 | 197 | 0.0 | 3.2 | 0.00 | 1.30 | 0.97 | 79 | 1008.1 |
| 20260507154009 | 14 | 229 | 0.0 | 3.2 | 0.00 | 1.30 | 0.97 | 80 | 1008.2 |
| 20260507153508 | 14 | 276 | 0.0 | 3.2 | 0.03 | 1.30 | 0.97 | 85 | 1008.3 |
| 20260507153034 | 14 | 221 | 1.6 | 3.2 | 0.03 | 1.30 | 0.97 | 82 | 1008.3 |
| 20260507152511 | 14 | 214 | 1.6 | 3.2 | 0.03 | 1.30 | 0.97 | 81 | 1008.3 |
| 20260507152004 | 13 | 276 | 1.6 | 3.2 | 0.03 | 1.30 | 0.97 | 84 | 1008.4 |
| 20260507151510 | 13 | 236 | 0.0 | 3.2 | 0.03 | 1.30 | 0.97 | 88 | 1008.5 |
| 20260507151004 | 13 | 277 | 1.6 | 3.2 | 0.03 | 1.30 | 0.97 | 91 | 1008.5 |
| 20260507150507 | 12 | 216 | 1.6 | 3.2 | 0.03 | 1.30 | 0.97 | 87 | 1008.6 |
| 20260507150015 | 12 | 217 | 1.6 | 3.2 | 0.03 | 1.30 | 0.97 | 91 | 1008.5 |
| 20260507145507 | 12 | 221 | 0.0 | 3.2 | 0.03 | 1.30 | 0.97 | 90 | 1008.2 |
| 20260507145011 | 12 | 269 | 0.0 | 3.2 | 0.03 | 1.30 | 0.97 | 90 | 1008.2 |
| 20260507144523 | 11 | 223 | 1.6 | 4.8 | 0.03 | 1.30 | 0.97 | 90 | 1008.3 |
| 20260507144007 | 11 | 217 | 1.6 | 4.8 | 0.03 | 1.30 | 0.97 | 90 | 1008.3 |
| 20260507143507 | 11 | 216 | 0.0 | 4.8 | 0.00 | 1.27 | 0.94 | 91 | 1008.5 |
| 20260507143027 | 11 | 242 | 1.6 | 4.8 | 0.00 | 1.27 | 0.94 | 92 | 1008.6 |
| 20260507142508 | 11 | 263 | 0.0 | 4.8 | 0.00 | 1.27 | 0.94 | 91 | 1008.4 |
| 20260507142008 | 11 | 221 | 0.0 | 4.8 | 0.00 | 1.27 | 0.94 | 94 | 1008.5 |
| 20260507141531 | 11 | 226 | 0.0 | 3.2 | 0.00 | 1.27 | 0.94 | 95 | 1008.5 |
| 20260507141009 | 10 | 231 | 0.0 | 3.2 | 0.00 | 1.27 | 0.94 | 94 | 1008.6 |
| 20260507140504 | 10 | 210 | 0.0 | 3.2 | 0.00 | 1.27 | 0.94 | 94 | 1008.7 |
| 20260507140019 | 10 | 222 | 0.0 | 3.2 | 0.00 | 1.27 | 0.94 | 94 | 1008.6 |
| 20260507135505 | 10 | 227 | 0.0 | 3.2 | 0.00 | 1.27 | 0.94 | 94 | 1008.5 |
| 20260507135007 | 10 | 231 | 0.0 | 3.2 | 0.00 | 1.27 | 0.94 | 94 | 1008.5 |
| 20260507134518 | 10 | 237 | 0.0 | 3.2 | 0.00 | 1.27 | 0.94 | 94 | 1008.3 |
| 20260507134009 | 10 | 219 | 0.0 | 3.2 | 0.00 | 1.27 | 0.94 | 94 | 1008.3 |
| 20260507133509 | 10 | 219 | 0.0 | 3.2 | 0.00 | 1.27 | 0.94 | 95 | 1008.7 |
| 20260507133027 | 10 | 198 | 0.0 | 3.2 | 0.03 | 1.27 | 0.94 | 95 | 1008.6 |
| 20260507132508 | 9 | 198 | 0.0 | 3.2 | 0.05 | 1.27 | 0.94 | 96 | 1008.3 |
| 20260507132003 | 9 | 231 | 0.0 | 3.2 | 0.05 | 1.27 | 0.94 | 96 | 1008.4 |
| 20260507131515 | 9 | 246 | 0.0 | 3.2 | 0.05 | 1.27 | 0.94 | 96 | 1008.1 |
| 20260507131008 | 8 | 228 | 0.0 | 3.2 | 0.05 | 1.27 | 0.94 | 96 | 1008.1 |
| 20260507130508 | 8 | 228 | 0.0 | 3.2 | 0.05 | 1.27 | 0.94 | 96 | 1008.1 |
| 20260507130010 | 8 | 228 | 0.0 | 3.2 | 0.05 | 1.27 | 0.94 | 95 | 1008.3 |
| 20260507125507 | 8 | 228 | 0.0 | 3.2 | 0.05 | 1.27 | 0.94 | 95 | 1008.2 |
| 20260507125005 | 8 | 228 | 0.0 | 3.2 | 0.05 | 1.27 | 0.94 | 95 | 1008.5 |
| 20260507124520 | 8 | 228 | 0.0 | 3.2 | 0.05 | 1.27 | 0.94 | 95 | 1008.8 |
| 20260507124011 | 8 | 217 | 0.0 | 3.2 | 0.05 | 1.27 | 0.94 | 95 | 1008.6 |
| 20260507123509 | 8 | 217 | 0.0 | 3.2 | 0.08 | 1.27 | 0.94 | 95 | 1008.7 |
| 20260507123022 | 8 | 217 | 0.0 | 3.2 | 0.05 | 1.24 | 0.91 | 94 | 1008.8 |
| 20260507122508 | 8 | 217 | 1.6 | 3.2 | 0.03 | 1.22 | 0.89 | 95 | 1008.7 |
| 20260507122009 | 8 | 226 | 0.0 | 4.8 | 0.03 | 1.22 | 0.89 | 95 | 1008.6 |
| 20260507121522 | 8 | 226 | 0.0 | 4.8 | 0.03 | 1.22 | 0.89 | 95 | 1008.6 |
| 20260507121010 | 8 | 229 | 0.0 | 3.2 | 0.03 | 1.22 | 0.89 | 95 | 1008.3 |
| 20260507120502 | 8 | 229 | 0.0 | 3.2 | 0.03 | 1.22 | 0.89 | 95 | 1008.2 |
| 20260507120008 | 8 | 229 | 0.0 | 3.2 | 0.03 | 1.22 | 0.89 | 95 | 1008.2 |
| 20260507115506 | 8 | 200 | 0.0 | 4.8 | 0.05 | 1.22 | 0.89 | 95 | 1008.6 |
| 20260507115005 | 8 | 221 | 0.0 | 4.8 | 0.05 | 1.22 | 0.89 | 95 | 1008.6 |
| 20260507114512 | 8 | 233 | 0.0 | 3.2 | 0.05 | 1.22 | 0.89 | 95 | 1008.3 |
| 20260507114009 | 8 | 266 | 0.0 | 4.8 | 0.05 | 1.22 | 0.89 | 95 | 1008.3 |
| 20260507113505 | 9 | 217 | 1.6 | 4.8 | 0.05 | 1.19 | 0.86 | 95 | 1008.3 |
| 20260507113036 | 9 | 224 | 1.6 | 4.8 | 0.05 | 1.19 | 0.86 | 95 | 1008.5 |
| 20260507112507 | 9 | 218 | 1.6 | 6.4 | 0.05 | 1.19 | 0.86 | 95 | 1008.7 |
| 20260507112010 | 9 | 225 | 3.2 | 6.4 | 0.08 | 1.19 | 0.86 | 95 | 1008.8 |
| 20260507111528 | 10 | 226 | 1.6 | 3.2 | 0.08 | 1.19 | 0.86 | 96 | 1008.5 |
| 20260507111010 | 10 | 218 | 1.6 | 3.2 | 0.08 | 1.19 | 0.86 | 96 | 1008.1 |
| 20260507110508 | 10 | 226 | 0.0 | 3.2 | 0.08 | 1.19 | 0.86 | 95 | 1007.6 |
| 20260507110024 | 10 | 229 | 0.0 | 4.8 | 0.08 | 1.19 | 0.86 | 95 | 1007.4 |
| 20260507105509 | 10 | 237 | 1.6 | 4.8 | 0.05 | 1.17 | 0.84 | 95 | 1007.4 |
| 20260507105010 | 10 | 281 | 0.0 | 3.2 | 0.05 | 1.17 | 0.84 | 95 | 1007.2 |
| 20260507104510 | 10 | 231 | 0.0 | 3.2 | 0.08 | 1.17 | 0.84 | 95 | 1007.4 |
| 20260507104010 | 10 | 210 | 0.0 | 6.4 | 0.08 | 1.17 | 0.84 | 95 | 1007.4 |
| 20260507103506 | 10 | 247 | 0.0 | 6.4 | 0.05 | 1.14 | 0.81 | 95 | 1007.6 |
| 20260507103020 | 10 | 229 | 1.6 | 6.4 | 0.08 | 1.14 | 0.81 | 95 | 1007.6 |
| 20260507102506 | 10 | 232 | 0.0 | 6.4 | 0.13 | 1.14 | 0.81 | 96 | 1007.3 |
| 20260507102008 | 10 | 222 | 1.6 | 6.4 | 0.13 | 1.12 | 0.79 | 96 | 1007.3 |
| 20260507101520 | 10 | 222 | 1.6 | 6.4 | 0.30 | 1.12 | 0.79 | 96 | 1007.3 |
| 20260507101007 | 10 | 222 | 1.6 | 6.4 | 0.38 | 1.12 | 0.79 | 96 | 1007.0 |
| 20260507100508 | 10 | 227 | 1.6 | 6.4 | 0.41 | 1.12 | 0.79 | 96 | 1006.6 |
| 20260507100022 | 11 | 243 | 1.6 | 4.8 | 0.46 | 1.12 | 0.79 | 96 | 1006.7 |
| 20260507095510 | 11 | 285 | 0.0 | 4.8 | 0.46 | 1.12 | 0.79 | 96 | 1006.7 |
| 20260507095012 | 11 | 221 | 1.6 | 4.8 | 0.46 | 1.12 | 0.79 | 96 | 1006.8 |
| 20260507094526 | 11 | 232 | 1.6 | 4.8 | 0.46 | 1.09 | 0.76 | 96 | 1006.7 |
| 20260507094007 | 11 | 212 | 1.6 | 6.4 | 0.48 | 1.09 | 0.76 | 96 | 1006.4 |
| 20260507093510 | 11 | 223 | 1.6 | 6.4 | 0.51 | 1.09 | 0.76 | 96 | 1006.5 |
| 20260507093012 | 11 | 229 | 0.0 | 3.2 | 0.66 | 1.07 | 0.74 | 96 | 1006.6 |
| 20260507092510 | 11 | 221 | 0.0 | 3.2 | 0.66 | 1.02 | 0.69 | 96 | 1006.7 |
| 20260507092008 | 11 | 221 | 1.6 | 4.8 | 0.64 | 0.99 | 0.66 | 97 | 1006.9 |
| 20260507091515 | 11 | 216 | 1.6 | 4.8 | 0.46 | 0.81 | 0.48 | 96 | 1006.8 |
| 20260507091010 | 11 | 210 | 0.0 | 3.2 | 0.38 | 0.74 | 0.41 | 96 | 1006.6 |
| 20260507090511 | 10 | 210 | 0.0 | 3.2 | 0.36 | 0.71 | 0.38 | 96 | 1006.4 |
| 20260507090019 | 10 | 210 | 0.0 | 3.2 | 0.30 | 0.66 | 0.33 | 96 | 1006.6 |
| 20260507085508 | 10 | 203 | 0.0 | 3.2 | 0.30 | 0.66 | 0.33 | 96 | 1006.7 |
| 20260507085010 | 10 | 187 | 0.0 | 4.8 | 0.30 | 0.66 | 0.33 | 96 | 1006.7 |
| 20260507084529 | 10 | 216 | 0.0 | 4.8 | 0.28 | 0.64 | 0.30 | 96 | 1006.9 |
| 20260507084009 | 10 | 210 | 0.0 | 4.8 | 0.25 | 0.61 | 0.28 | 96 | 1007.0 |
| 20260507083509 | 11 | 136 | 0.0 | 3.2 | 0.23 | 0.58 | 0.25 | 96 | 1007.1 |
| 20260507083028 | 11 | 167 | 1.6 | 4.8 | 0.08 | 0.41 | 0.08 | 96 | 1007.7 |
| 20260507082507 | 11 | 198 | 1.6 | 4.8 | 0.03 | 0.36 | 0.03 | 96 | 1007.3 |
| 20260507082011 | 11 | 210 | 3.2 | 4.8 | 0.03 | 0.36 | 0.03 | 96 | 1007.0 |
| 20260507081520 | 11 | 198 | 1.6 | 3.2 | 0.03 | 0.36 | 0.03 | 96 | 1006.7 |
| 20260507081006 | 11 | 161 | 0.0 | 3.2 | 0.03 | 0.36 | 0.03 | 96 | 1006.3 |
| 20260507080508 | 11 | 161 | 0.0 | 3.2 | 0.03 | 0.36 | 0.03 | 96 | 1005.9 |
| 20260507080019 | 11 | 161 | 0.0 | 3.2 | 0.03 | 0.36 | 0.03 | 96 | 1005.7 |
| 20260507075506 | 11 | 161 | 0.0 | 3.2 | 0.03 | 0.36 | 0.03 | 96 | 1005.9 |
| 20260507075010 | 11 | 161 | 0.0 | 1.6 | 0.03 | 0.36 | 0.03 | 96 | 1006.0 |
| 20260507074522 | 11 | 161 | 0.0 | 0.0 | 0.03 | 0.36 | 0.03 | 96 | 1006.2 |
| 20260507073005 | 11 | 161 | 0.0 | 3.2 | 0.00 | 0.33 | 0.00 | 96 | 1006.1 |
| 20260507072504 | 11 | 161 | 0.0 | 3.2 | 0.00 | 0.33 | 0.00 | 96 | 1006.2 |
| 20260507072003 | 11 | 161 | 0.0 | 3.2 | 0.00 | 0.33 | 0.00 | 96 | 1006.3 |
| 20260507071506 | 11 | 161 | 0.0 | 3.2 | 0.00 | 0.33 | 0.00 | 96 | 1006.2 |
| 20260507071003 | 11 | 161 | 0.0 | 3.2 | 0.00 | 0.33 | 0.00 | 96 | 1006.3 |
| 20260507070504 | 11 | 158 | 0.0 | 4.8 | 0.00 | 0.33 | 0.00 | 96 | 1006.6 |
| 20260507070012 | 11 | 168 | 0.0 | 4.8 | 0.00 | 0.33 | 0.00 | 96 | 1006.6 |
| 20260507065505 | 11 | 197 | 0.0 | 3.2 | 0.00 | 0.33 | 0.00 | 96 | 1006.6 |
| 20260507065003 | 11 | 197 | 1.6 | 3.2 | 0.00 | 0.33 | 0.00 | 96 | 1006.6 |
| 20260507064504 | 11 | 198 | 1.6 | 3.2 | 0.00 | 0.33 | 0.00 | 96 | 1006.5 |
| 20260507064003 | 11 | 169 | 0.0 | 3.2 | 0.00 | 0.33 | 0.00 | 96 | 1006.3 |
| 20260507063507 | 11 | 185 | 0.0 | 3.2 | 0.00 | 0.33 | 0.00 | 96 | 1006.2 |
| 20260507063007 | 11 | 167 | 1.6 | 3.2 | 0.00 | 0.33 | 0.00 | 95 | 1006.5 |
| 20260507062503 | 11 | 167 | 1.6 | 6.4 | 0.00 | 0.33 | 0.00 | 96 | 1006.5 |
| 20260507062003 | 11 | 184 | 1.6 | 6.4 | 0.00 | 0.33 | 0.00 | 96 | 1006.8 |
| 20260507061504 | 11 | 189 | 1.6 | 3.2 | 0.00 | 0.33 | 0.00 | 96 | 1006.8 |
| 20260507061004 | 11 | 187 | 1.6 | 4.8 | 0.00 | 0.33 | 0.00 | 95 | 1006.8 |
| 20260507060505 | 11 | 188 | 1.6 | 4.8 | 0.00 | 0.33 | 0.00 | 95 | 1007.0 |
| 20260507060004 | 11 | 169 | 1.6 | 3.2 | 0.00 | 0.33 | 0.00 | 95 | 1007.1 |
| 20260507055504 | 11 | 203 | 1.6 | 3.2 | 0.00 | 0.33 | 0.00 | 95 | 1007.0 |
| 20260507055008 | 11 | 191 | 0.0 | 4.8 | 0.00 | 0.33 | 0.00 | 95 | 1007.3 |
| 20260507054507 | 11 | 195 | 1.6 | 4.8 | 0.00 | 0.33 | 0.00 | 95 | 1007.3 |
| 20260507054003 | 11 | 176 | 1.6 | 4.8 | 0.00 | 0.33 | 0.00 | 95 | 1007.3 |
| 20260507053505 | 11 | 184 | 1.6 | 8.0 | 0.00 | 0.33 | 0.00 | 95 | 1007.2 |
| 20260507053003 | 11 | 211 | 3.2 | 8.0 | 0.00 | 0.33 | 0.00 | 95 | 1007.3 |
| 20260507052503 | 11 | 205 | 1.6 | 4.8 | 0.00 | 0.33 | 0.00 | 96 | 1007.5 |
| 20260507052006 | 11 | 189 | 1.6 | 4.8 | 0.00 | 0.33 | 0.00 | 95 | 1007.5 |
| 20260507051506 | 11 | 160 | 1.6 | 11.3 | 0.00 | 0.33 | 0.00 | 95 | 1007.4 |
| 20260507051006 | 11 | 205 | 3.2 | 11.3 | 0.00 | 0.33 | 0.00 | 95 | 1007.7 |
| 20260507050505 | 11 | 181 | 1.6 | 4.8 | 0.00 | 0.33 | 0.00 | 95 | 1007.8 |
| 20260507050014 | 11 | 176 | 3.2 | 6.4 | 0.00 | 0.33 | 0.00 | 95 | 1007.8 |
| 20260507045505 | 12 | 155 | 1.6 | 6.4 | 0.00 | 0.33 | 0.00 | 95 | 1007.9 |
| 20260507045004 | 12 | 181 | 1.6 | 6.4 | 0.00 | 0.33 | 0.00 | 95 | 1007.7 |
| 20260507044508 | 12 | 177 | 3.2 | 6.4 | 0.00 | 0.33 | 0.00 | 96 | 1007.9 |
| 20260507044007 | 12 | 162 | 1.6 | 3.2 | 0.00 | 0.33 | 0.00 | 95 | 1007.8 |
| 20260507043507 | 12 | 186 | 1.6 | 3.2 | 0.00 | 0.33 | 0.00 | 95 | 1007.6 |
| 20260507043016 | 12 | 158 | 1.6 | 3.2 | 0.00 | 0.33 | 0.00 | 95 | 1007.7 |
| 20260507042509 | 12 | 176 | 1.6 | 6.4 | 0.00 | 0.33 | 0.00 | 95 | 1007.6 |
| 20260507042006 | 12 | 191 | 1.6 | 6.4 | 0.00 | 0.33 | 0.00 | 95 | 1007.7 |
| 20260507041509 | 12 | 158 | 1.6 | 4.8 | 0.00 | 0.33 | 0.00 | 95 | 1007.8 |
| 20260507041008 | 12 | 168 | 1.6 | 4.8 | 0.00 | 0.33 | 0.00 | 95 | 1008.0 |
| 20260507040506 | 12 | 205 | 1.6 | 6.4 | 0.00 | 0.33 | 0.00 | 95 | 1008.2 |
| 20260507040009 | 12 | 174 | 1.6 | 6.4 | 0.00 | 0.33 | 0.00 | 95 | 1008.3 |
| 20260507035510 | 12 | 191 | 1.6 | 9.7 | 0.00 | 0.33 | 0.33 | 95 | 1008.2 |
| 20260507035007 | 12 | 195 | 3.2 | 11.3 | 0.00 | 0.33 | 0.33 | 95 | 1008.1 |
| 20260507034520 | 12 | 204 | 4.8 | 11.3 | 0.00 | 0.33 | 0.33 | 95 | 1008.0 |
| 20260507034003 | 12 | 210 | 1.6 | 8.0 | 0.00 | 0.33 | 0.33 | 95 | 1008.2 |
| 20260507033503 | 12 | 181 | 1.6 | 8.0 | 0.00 | 0.33 | 0.33 | 95 | 1008.1 |
| 20260507033015 | 12 | 160 | 1.6 | 6.4 | 0.00 | 0.33 | 0.33 | 95 | 1008.2 |
| 20260507032507 | 12 | 172 | 3.2 | 6.4 | 0.00 | 0.33 | 0.33 | 95 | 1008.0 |
| 20260507032010 | 12 | 175 | 3.2 | 8.0 | 0.00 | 0.33 | 0.33 | 95 | 1007.9 |
| 20260507031512 | 12 | 174 | 3.2 | 6.4 | 0.00 | 0.33 | 0.33 | 95 | 1007.8 |
| 20260507031003 | 12 | 199 | 3.2 | 4.8 | 0.00 | 0.33 | 0.33 | 95 | 1007.9 |
| 20260507030509 | 12 | 179 | 3.2 | 6.4 | 0.00 | 0.33 | 0.33 | 95 | 1007.9 |
| 20260507030014 | 12 | 167 | 1.6 | 9.7 | 0.00 | 0.33 | 0.33 | 95 | 1007.9 |
| 20260507025505 | 12 | 168 | 1.6 | 9.7 | 0.00 | 0.33 | 0.33 | 95 | 1007.9 |
| 20260507025005 | 12 | 153 | 1.6 | 6.4 | 0.00 | 0.33 | 0.33 | 95 | 1007.9 |
| 20260507024515 | 12 | 148 | 3.2 | 6.4 | 0.00 | 0.33 | 0.33 | 95 | 1008.0 |
| 20260507024008 | 12 | 159 | 1.6 | 6.4 | 0.00 | 0.33 | 0.33 | 95 | 1008.1 |
| 20260507023504 | 12 | 187 | 1.6 | 6.4 | 0.00 | 0.33 | 0.33 | 95 | 1008.2 |
| 20260507023011 | 12 | 186 | 3.2 | 6.4 | 0.00 | 0.33 | 0.33 | 95 | 1008.3 |
| 20260507022505 | 12 | 154 | 1.6 | 6.4 | 0.00 | 0.33 | 0.33 | 95 | 1008.4 |
| 20260507022008 | 13 | 177 | 1.6 | 6.4 | 0.00 | 0.33 | 0.33 | 95 | 1008.4 |
| 20260507021514 | 13 | 153 | 3.2 | 6.4 | 0.00 | 0.33 | 0.33 | 95 | 1008.5 |
| 20260507021008 | 13 | 150 | 1.6 | 8.0 | 0.00 | 0.33 | 0.33 | 95 | 1008.6 |
| 20260507020507 | 13 | 143 | 3.2 | 8.0 | 0.00 | 0.33 | 0.33 | 95 | 1008.7 |
| 20260507020022 | 13 | 139 | 3.2 | 8.0 | 0.00 | 0.33 | 0.33 | 95 | 1008.6 |
| 20260507015506 | 13 | 180 | 3.2 | 8.0 | 0.00 | 0.33 | 0.33 | 95 | 1008.6 |
| 20260507015008 | 13 | 134 | 3.2 | 9.7 | 0.00 | 0.33 | 0.33 | 95 | 1008.7 |
| 20260507014516 | 13 | 193 | 1.6 | 9.7 | 0.00 | 0.33 | 0.33 | 95 | 1008.7 |
| 20260507014004 | 13 | 186 | 3.2 | 9.7 | 0.00 | 0.33 | 0.33 | 95 | 1008.8 |
| 20260507013505 | 13 | 175 | 4.8 | 11.3 | 0.03 | 0.33 | 0.33 | 95 | 1008.8 |
| 20260507013015 | 13 | 183 | 4.8 | 12.9 | 0.03 | 0.33 | 0.33 | 95 | 1008.9 |
| 20260507012504 | 13 | 172 | 3.2 | 12.9 | 0.03 | 0.33 | 0.33 | 95 | 1008.8 |
| 20260507012007 | 13 | 160 | 4.8 | 11.3 | 0.03 | 0.33 | 0.33 | 95 | 1008.7 |
| 20260507011523 | 13 | 148 | 3.2 | 8.0 | 0.03 | 0.33 | 0.33 | 95 | 1008.8 |
| 20260507011006 | 13 | 181 | 3.2 | 8.0 | 0.03 | 0.33 | 0.33 | 95 | 1008.8 |
| 20260507010507 | 13 | 168 | 3.2 | 9.7 | 0.05 | 0.33 | 0.33 | 95 | 1008.7 |
| 20260507010016 | 13 | 155 | 3.2 | 9.7 | 0.05 | 0.33 | 0.33 | 95 | 1008.8 |
| 20260507005507 | 13 | 153 | 3.2 | 9.7 | 0.05 | 0.33 | 0.33 | 95 | 1008.8 |
| 20260507005007 | 13 | 143 | 4.8 | 12.9 | 0.05 | 0.33 | 0.33 | 95 | 1008.7 |
| 20260507004516 | 13 | 145 | 3.2 | 12.9 | 0.05 | 0.33 | 0.33 | 95 | 1008.6 |
| 20260507004010 | 13 | 145 | 3.2 | 9.7 | 0.05 | 0.33 | 0.33 | 95 | 1008.5 |
| 20260507003508 | 13 | 157 | 4.8 | 9.7 | 0.05 | 0.30 | 0.30 | 95 | 1008.6 |
| 20260507003015 | 13 | 151 | 3.2 | 8.0 | 0.08 | 0.30 | 0.30 | 95 | 1008.7 |
| 20260507002506 | 13 | 132 | 3.2 | 9.7 | 0.08 | 0.30 | 0.30 | 95 | 1008.7 |
| 20260507002006 | 13 | 121 | 1.6 | 9.7 | 0.10 | 0.30 | 0.30 | 95 | 1008.8 |
| 20260507001543 | 13 | 183 | 4.8 | 8.0 | 0.13 | 0.30 | 0.30 | 95 | 1008.6 |
| 20260507001008 | 13 | 140 | 3.2 | 6.4 | 0.15 | 0.30 | 0.30 | 95 | 1008.7 |
| 20260507000507 | 13 | 169 | 3.2 | 6.4 | 0.15 | 0.28 | 0.28 | 95 | 1008.7 |
| 20260507000023 | 13 | 136 | 1.6 | 6.4 | 0.18 | 0.28 | 0.28 | 95 | 1008.7 |
| 20260506235506 | 13 | 195 | 1.6 | 6.4 | 0.18 | 0.28 | 0.28 | 95 | 1008.6 |
| 20260506235009 | 13 | 165 | 1.6 | 6.4 | 0.20 | 0.28 | 0.28 | 95 | 1008.5 |
| 20260506234518 | 13 | 162 | 1.6 | 4.8 | 0.20 | 0.28 | 0.28 | 94 | 1008.6 |
| 20260506234006 | 13 | 160 | 1.6 | 9.7 | 0.20 | 0.28 | 0.28 | 94 | 1008.7 |
| 20260506233506 | 13 | 113 | 1.6 | 9.7 | 0.20 | 0.25 | 0.25 | 94 | 1008.6 |
| 20260506233019 | 13 | 130 | 1.6 | 4.8 | 0.20 | 0.23 | 0.23 | 94 | 1008.6 |
| 20260506232509 | 13 | 114 | 1.6 | 8.0 | 0.23 | 0.23 | 0.23 | 94 | 1008.6 |
| 20260506232009 | 13 | 164 | 1.6 | 8.0 | 0.20 | 0.20 | 0.20 | 94 | 1008.7 |
| 20260506231520 | 13 | 190 | 1.6 | 8.0 | 0.18 | 0.18 | 0.18 | 94 | 1008.8 |
| 20260506231004 | 13 | 165 | 1.6 | 8.0 | 0.15 | 0.15 | 0.15 | 94 | 1008.9 |
| 20260506230509 | 13 | 173 | 3.2 | 8.0 | 0.13 | 0.13 | 0.13 | 93 | 1009.1 |
| 20260506230015 | 13 | 143 | 1.6 | 8.0 | 0.10 | 0.10 | 0.10 | 93 | 1009.2 |
| 20260506225503 | 13 | 164 | 1.6 | 8.0 | 0.10 | 0.10 | 0.10 | 93 | 1009.2 |
| 20260506225003 | 13 | 172 | 3.2 | 8.0 | 0.08 | 0.08 | 0.08 | 92 | 1009.1 |
| 20260506224501 | 13 | 186 | 3.2 | 6.4 | 0.08 | 0.08 | 0.08 | 92 | 1009.2 |
| 20260506224003 | 14 | 124 | 1.6 | 6.4 | 0.08 | 0.08 | 0.08 | 92 | 1009.3 |
| 20260506223503 | 14 | 171 | 3.2 | 6.4 | 0.05 | 0.05 | 0.05 | 91 | 1009.3 |
| 20260506223003 | 14 | 156 | 3.2 | 8.0 | 0.03 | 0.03 | 0.03 | 90 | 1009.4 |
| 20260506222505 | 14 | 158 | 3.2 | 8.0 | 0.00 | 0.00 | 0.00 | 89 | 1009.5 |
| 20260506222003 | 14 | 188 | 3.2 | 8.0 | 0.00 | 0.00 | 0.00 | 89 | 1009.4 |
| 20260506221511 | 14 | 190 | 1.6 | 6.4 | 0.00 | 0.00 | 0.00 | 89 | 1009.3 |
| 20260506221004 | 14 | 151 | 3.2 | 6.4 | 0.00 | 0.00 | 0.00 | 89 | 1009.3 |
| 20260506220507 | 15 | 167 | 1.6 | 6.4 | 0.00 | 0.00 | 0.00 | 88 | 1009.3 |
| 20260506220016 | 15 | 152 | 3.2 | 6.4 | 0.00 | 0.00 | 0.00 | 86 | 1009.2 |
| 20260506215507 | 15 | 143 | 3.2 | 6.4 | 0.00 | 0.00 | 0.00 | 84 | 1009.3 |
| 20260506215008 | 15 | 182 | 1.6 | 4.8 | 0.00 | 0.00 | 0.00 | 84 | 1009.2 |
| 20260506214517 | 15 | 168 | 3.2 | 4.8 | 0.00 | 0.00 | 0.00 | 83 | 1009.3 |
| 20260506214004 | 15 | 163 | 3.2 | 4.8 | 0.00 | 0.00 | 0.00 | 83 | 1009.3 |
| 20260506213505 | 15 | 139 | 1.6 | 6.4 | 0.00 | 0.00 | 0.00 | 84 | 1009.4 |
| 20260506213003 | 15 | 159 | 3.2 | 6.4 | 0.00 | 0.00 | 0.00 | 84 | 1009.5 |
| 20260506212504 | 15 | 168 | 1.6 | 6.4 | 0.00 | 0.00 | 0.00 | 83 | 1009.6 |
| 20260506212007 | 15 | 148 | 1.6 | 6.4 | 0.00 | 0.00 | 0.00 | 83 | 1009.6 |
| 20260506211506 | 15 | 134 | 3.2 | 6.4 | 0.00 | 0.00 | 0.00 | 82 | 1009.6 |
| 20260506211007 | 16 | 140 | 1.6 | 6.4 | 0.00 | 0.00 | 0.00 | 81 | 1009.5 |
| 20260506210507 | 16 | 180 | 1.6 | 8.0 | 0.00 | 0.00 | 0.00 | 80 | 1009.6 |
| 20260506210022 | 16 | 165 | 4.8 | 8.0 | 0.00 | 0.00 | 0.00 | 80 | 1009.8 |
| 20260506205509 | 16 | 162 | 3.2 | 6.4 | 0.00 | 0.00 | 0.00 | 80 | 1009.7 |
| 20260506205005 | 16 | 174 | 3.2 | 6.4 | 0.00 | 0.00 | 0.00 | 79 | 1009.6 |
| 20260506204516 | 16 | 126 | 1.6 | 6.4 | 0.00 | 0.00 | 0.00 | 79 | 1009.7 |
| 20260506204009 | 16 | 141 | 3.2 | 8.0 | 0.00 | 0.00 | 0.00 | 80 | 1009.8 |
| 20260506203511 | 16 | 184 | 3.2 | 8.0 | 0.00 | 0.00 | 0.00 | 79 | 1009.8 |
| 20260506203021 | 16 | 119 | 3.2 | 6.4 | 0.00 | 0.00 | 0.00 | 78 | 1009.9 |
| 20260506202503 | 16 | 169 | 3.2 | 6.4 | 0.00 | 0.00 | 0.00 | 78 | 1010.0 |
| 20260506202004 | 16 | 154 | 1.6 | 9.7 | 0.00 | 0.00 | 0.00 | 78 | 1009.9 |
| 20260506201506 | 16 | 180 | 1.6 | 9.7 | 0.00 | 0.00 | 0.00 | 78 | 1009.9 |
| 20260506201003 | 16 | 160 | 3.2 | 9.7 | 0.00 | 0.00 | 0.00 | 78 | 1009.8 |
| 20260506200504 | 16 | 113 | 3.2 | 9.7 | 0.00 | 0.00 | 0.00 | 78 | 1010.1 |
| 20260506200010 | 16 | 127 | 1.6 | 8.0 | 0.00 | 0.00 | 0.00 | 78 | 1010.2 |
| 20260506195504 | 16 | 283 | 1.6 | 8.0 | 0.00 | 0.00 | 0.00 | 78 | 1010.1 |
| 20260506195005 | 16 | 156 | 3.2 | 6.4 | 0.00 | 0.00 | 0.00 | 77 | 1010.2 |
| 20260506194516 | 16 | 172 | 3.2 | 6.4 | 0.00 | 0.00 | 0.00 | 77 | 1010.3 |
| 20260506194008 | 16 | 126 | 3.2 | 9.7 | 0.00 | 0.00 | 0.00 | 77 | 1010.5 |
| 20260506193507 | 16 | 158 | 3.2 | 9.7 | 0.00 | 0.00 | 0.00 | 77 | 1010.4 |
| 20260506193032 | 16 | 150 | 3.2 | 6.4 | 0.00 | 0.00 | 0.00 | 77 | 1010.4 |
| 20260506192510 | 16 | 145 | 1.6 | 6.4 | 0.00 | 0.00 | 0.00 | 77 | 1010.4 |
| 20260506192010 | 16 | 191 | 1.6 | 6.4 | 0.00 | 0.00 | 0.00 | 77 | 1010.4 |
| 20260506191524 | 16 | 74 | 3.2 | 6.4 | 0.00 | 0.00 | 0.00 | 76 | 1010.6 |
| 20260506191003 | 16 | 146 | 3.2 | 6.4 | 0.00 | 0.00 | 0.00 | 76 | 1010.4 |
| 20260506190502 | 16 | 134 | 1.6 | 8.0 | 0.00 | 0.00 | 0.00 | 76 | 1010.4 |
| 20260506190007 | 16 | 184 | 3.2 | 8.0 | 0.00 | 0.00 | 0.00 | 76 | 1010.3 |
| 20260506185510 | 17 | 138 | 3.2 | 8.0 | 0.00 | 0.00 | 0.00 | 74 | 1010.4 |
| 20260506185006 | 17 | 170 | 3.2 | 8.0 | 0.00 | 0.00 | 0.00 | 74 | 1010.5 |
| 20260506184515 | 17 | 162 | 3.2 | 8.0 | 0.00 | 0.00 | 0.00 | 75 | 1010.7 |
| 20260506184006 | 17 | 184 | 3.2 | 8.0 | 0.00 | 0.00 | 0.00 | 75 | 1010.7 |
| 20260506183507 | 17 | 154 | 3.2 | 8.0 | 0.00 | 0.00 | 0.00 | 75 | 1011.0 |
| 20260506183018 | 17 | 205 | 3.2 | 8.0 | 0.00 | 0.00 | 0.00 | 74 | 1011.0 |
| 20260506182511 | 17 | 147 | 1.6 | 11.3 | 0.00 | 0.00 | 0.00 | 74 | 1011.1 |
| 20260506182006 | 17 | 167 | 1.6 | 11.3 | 0.00 | 0.00 | 0.00 | 74 | 1011.1 |
| 20260506181534 | 17 | 174 | 3.2 | 8.0 | 0.00 | 0.00 | 0.00 | 73 | 1011.3 |
| 20260506181008 | 17 | 156 | 1.6 | 12.9 | 0.00 | 0.00 | 0.00 | 73 | 1011.4 |
| 20260506180509 | 17 | 131 | 4.8 | 12.9 | 0.00 | 0.00 | 0.00 | 73 | 1011.5 |
| 20260506180026 | 18 | 157 | 4.8 | 12.9 | 0.00 | 0.00 | 0.00 | 71 | 1011.6 |
| 20260506175502 | 18 | 172 | 3.2 | 9.7 | 0.00 | 0.00 | 0.00 | 71 | 1011.6 |
| 20260506175003 | 18 | 169 | 3.2 | 12.9 | 0.00 | 0.00 | 0.00 | 70 | 1011.8 |
| 20260506174509 | 19 | 168 | 4.8 | 12.9 | 0.00 | 0.00 | 0.00 | 70 | 1011.8 |
| 20260506174003 | 19 | 172 | 3.2 | 9.7 | 0.00 | 0.00 | 0.00 | 70 | 1011.8 |
| 20260506173509 | 19 | 134 | 4.8 | 9.7 | 0.00 | 0.00 | 0.00 | 69 | 1011.7 |
| 20260506173016 | 19 | 139 | 3.2 | 9.7 | 0.00 | 0.00 | 0.00 | 70 | 1011.8 |
| 20260506172507 | 20 | 162 | 4.8 | 9.7 | 0.00 | 0.00 | 0.00 | 68 | 1011.7 |
| 20260506172011 | 20 | 198 | 3.2 | 11.3 | 0.00 | 0.00 | 0.00 | 68 | 1011.6 |
| 20260506171520 | 20 | 137 | 3.2 | 11.3 | 0.00 | 0.00 | 0.00 | 70 | 1011.8 |
| 20260506171011 | 19 | 161 | 4.8 | 11.3 | 0.00 | 0.00 | 0.00 | 70 | 1011.9 |
| 20260506170508 | 18 | 105 | 4.8 | 11.3 | 0.00 | 0.00 | 0.00 | 72 | 1011.9 |
| 20260506170028 | 18 | 178 | 3.2 | 11.3 | 0.00 | 0.00 | 0.00 | 73 | 1012.2 |
| 20260506165510 | 18 | 203 | 4.8 | 11.3 | 0.00 | 0.00 | 0.00 | 73 | 1012.4 |
| 20260506165009 | 18 | 136 | 3.2 | 12.9 | 0.00 | 0.00 | 0.00 | 73 | 1012.3 |
| 20260506164544 | 18 | 164 | 4.8 | 20.9 | 0.00 | 0.00 | 0.00 | 73 | 1012.4 |
| 20260506164006 | 18 | 179 | 4.8 | 20.9 | 0.00 | 0.00 | 0.00 | 73 | 1012.4 |
| 20260506163505 | 18 | 195 | 4.8 | 14.5 | 0.00 | 0.00 | 0.00 | 72 | 1012.4 |
| 20260506163014 | 18 | 200 | 6.4 | 14.5 | 0.00 | 0.00 | 0.00 | 71 | 1012.4 |
| 20260506162508 | 18 | 160 | 4.8 | 14.5 | 0.00 | 0.00 | 0.00 | 71 | 1012.7 |
| 20260506162010 | 18 | 158 | 4.8 | 14.5 | 0.00 | 0.00 | 0.00 | 71 | 1012.6 |
| 20260506161521 | 19 | 186 | 4.8 | 9.7 | 0.00 | 0.00 | 0.00 | 69 | 1012.7 |